Regional Weather Roundup
Issued by NWS

Home | Current Version | Previous Version | Graphics & Text | Print | Product List | Glossary On
Versions: 1 2 3 4 5 6 7 8 9 10 11 12 13 14 15 16 17 18 19 20 21 22 23 24 25 26 27 28 29 30 31 32 33 34 35 36 37 38 39 40 41 42 43 44 45 46 47 48 49 50
000
ASUS45 KBOU 280710
RWRCO

WEATHER ROUNDUP FOR COLORADO
NATIONAL WEATHER SERVICE DENVER/BOULDER CO
100 AM MDT WED SEP 28 2016

NOTE: "FAIR" INDICATES FEW OR NO CLOUDS BELOW 12000 FEET WITH NO
SIGNIFICANT WEATHER AND/OR OBSTRUCTIONS TO VISIBILITY.

COZ001>005-013-030-031-280800-
...NORTHWEST COLORADO...

CITY           SKY/WX    TMP DP  RH WIND       PRES   REMARKS
CRAIG          FAIR      39  34  82 S3        30.30R
HAYDEN         FAIR      46  30  53 E13       30.31R
MEEKER         FAIR      45  38  76 E6        30.30S
MOUNT WERNER   NOT AVBL
STEAMBOAT SPGS FAIR      44  33  66 CALM      30.34R
WALDEN           N/A     34  27  75 SE7       30.42S WCI  28
$$

COZ006>008-011-280800-
...WEST CENTRAL VALLEYS...

CITY           SKY/WX    TMP DP  RH WIND       PRES   REMARKS
GRAND JUNCTION FAIR      56  37  49 E5        30.18R
MONTROSE       FAIR      54  37  52 SE10      30.27S
EAGLE          FAIR      46  30  53 CALM      30.34R
RIFLE          FAIR      52  41  66 CALM      30.25R
DELTA          NOT AVBL
NUCLA          FAIR      54  36  50 E9        30.28S
$$

COZ017>023-064>068-280800-
...SOUTHWEST COLORADO...

CITY           SKY/WX    TMP DP  RH WIND       PRES   REMARKS
DURANGO        FAIR      48  33  56 CALM      30.29R
CORTEZ         FAIR      45  37  73 E3        30.26R
PAGOSA SPRINGS FAIR      43  30  60 CALM      30.36S
TELLURIDE      FAIR      47  36  63 SE6       30.46F
WOLF CREEK PAS FAIR      43  23  45 MISG      30.64S
$$

COZ009-010-012-014-032>034-037-058>063-280800-
...CENTRAL COLORADO...

CITY           SKY/WX    TMP DP  RH WIND       PRES   REMARKS
ASPEN          FAIR      44  31  60 S5        30.37S
BUENA VISTA    FAIR      44  27  51 NW3       30.40R
COPPER MTN     FAIR      46  18  31 W7        30.64S
BERTHOUD PASS  FAIR      37  27  65 E24       30.67S
COTTONWOOD PAS FAIR      54  23  30 W8        30.50S
GUNNISON       FAIR      43  32  65 CALM      30.39R
KREMMLING      FAIR      41  27  56 CALM      30.39S
LEADVILLE      FAIR      43  21  41 CALM      30.49F
MONARCH PASS   FAIR      43  25  49 E9        30.73R
SALIDA         FAIR      51  30  44 W8        30.44S
SUNLIGHT       FAIR      46  32  57 NE3       30.57F
WILKERSON PASS FAIR      45  18  33 E7        30.62S
$$

COZ069>075-280800-
...SAN LUIS VALLEY/SANGRE DE CRISTO MOUNTAINS...

CITY           SKY/WX    TMP DP  RH WIND       PRES   REMARKS
ALAMOSA        FAIR      44  28  53 E6        30.35R
LA VETA PASS   NOT AVBL
SAGUACHE       NOT AVBL
$$

COZ035-036-038>040-280800-
...NORTHERN COLORADO FRONT RANGE...

CITY           SKY/WX    TMP DP  RH WIND       PRES   REMARKS
DENVER INTL AP FAIR      56  26  31 SW9       30.22S
DMNS CITY PARK   N/A     55  34  44 SE6       30.23S
AURORA         CLEAR     54  26  33 S6        30.24R
FRONT RANGE AP NOT AVBL
ERIE MUNI ARPT FAIR      49  32  51 S3        30.22R
BOULDER MUN AP FAIR      55  36  47 CALM      30.22S
CENTENNIAL     FAIR      49  30  48 CALM      30.25R
BROOMFIELD     FAIR      59  30  33 W6        30.25R
FORT COLLINS   FAIR      54  36  50 N3        30.21S
LONGMONT       FAIR      51  36  57 W5        30.23S
$$

COZ041-046-047-076>085-087-088-280800-
...PIKES PEAK/PALMER DIVIDE AND SOUTHERN FOOTHILLS...

CITY           SKY/WX    TMP DP  RH WIND       PRES   REMARKS
COLO. SPRINGS  FAIR      53  31  42 N8        30.27S
A. F. ACADEMY  FAIR      48  28  45 N9        30.29R
SCHRIEVER AFB  NOT AVBL
ELLICOTT       NOT AVBL
FALCON         FAIR      55  30  38 NW6       30.32R
FORT CARSON    FAIR      56  31  39 NW9       30.23R
LIMON          FAIR      43  24  47 CALM      30.21S
MONUMENT HILL  FAIR      43  28  56 SW8       30.33S
TRINIDAD       FAIR      54  33  45 W6        30.21R
$$

COZ042>045-048>051-090-091-280800-
...NORTHEAST COLORADO...

CITY           SKY/WX    TMP DP  RH WIND       PRES   REMARKS
GREELEY ARPT   FAIR     N/A N/A N/A NW7       30.20R
AKRON          FAIR      62  28  27 SE6       30.17S
BURLINGTON     FAIR      50  40  68 W7        30.13S
WRAY           NOT AVBL
STERLING       FAIR      46  34  61 CALM      30.13S
HOLYOKE        FAIR      52  37  58 W5        30.13R
FORT MORGAN    FAIR      55  26  32 W6        30.17S
$$

COZ086-089-092>099-280800-
...SOUTHEAST COLORADO...

CITY           SKY/WX    TMP DP  RH WIND       PRES   REMARKS
PUEBLO         FAIR      58  35  42 W3        30.15S
LA JUNTA       FAIR      54  38  54 NW7       30.12R
LAMAR          FAIR      52  39  61 NW3       30.08R
SPRINGFIELD    NOT AVBL
$$



USA.gov is the U.S. government's official web portal to all federal, state and local government web resources and services.